Location: Muenchen
(48.1800°N, 11.5800°E)
Time: 08:57:07
(UTC+02:00)

Tiros 1 - Visible Passes

Search period start: 27 September 2016 00:00
Search period end: 07 October 2016 00:00
Orbit: 631 x 665 km, 48.4° (Epoch: 26 September)

Date Brightness Start Highest point End Pass type
(mag) Time Alt. Az. Time Alt. Az. Time Alt. Az.
27 Sep 7.6 20:12:48 10° SW 20:17:20 44° SSE 20:20:03 22° E visible
27 Sep 8.2 21:54:36 10° W 21:57:44 41° W 21:57:44 41° W visible
28 Sep 7.1 20:38:46 10° WSW 20:43:31 68° SSE 20:45:16 37° E visible
28 Sep 9.1 22:20:58 10° W 22:22:57 25° W 22:22:57 25° W visible
29 Sep 7.8 19:23:16 10° SW 19:27:47 42° SSE 19:32:16 10° E visible
29 Sep 7.0 21:05:01 10° W 21:09:49 87° S 21:10:26 68° E visible
29 Sep 9.8 22:47:19 10° W 22:48:06 15° W 22:48:06 15° W visible
30 Sep 7.3 19:49:12 10° WSW 19:53:57 65° SSE 19:57:51 15° E visible
30 Sep 7.4 21:31:22 10° W 21:35:32 67° W 21:35:32 67° W visible
01 Oct 7.1 20:15:25 10° WSW 20:20:14 86° S 20:22:55 26° E visible
01 Oct 8.5 21:57:44 10° W 22:00:35 36° W 22:00:35 36° W visible
02 Oct 7.1 20:41:46 10° W 20:46:35 86° N 20:47:57 47° E visible
02 Oct 9.5 22:24:05 10° W 22:25:38 20° W 22:25:38 20° W visible
03 Oct 7.2 19:25:49 10° WSW 19:30:39 84° SSE 19:35:19 11° E visible
03 Oct 7.0 21:08:08 10° W 21:12:57 87° S 21:12:59 87° SSE visible
03 Oct 10.1 22:50:29 10° W 22:50:39 11° W 22:50:39 11° W visible
04 Oct 7.2 19:52:10 10° W 19:57:00 86° N 20:00:21 20° E visible
04 Oct 8.0 21:34:29 10° W 21:38:01 47° W 21:38:01 47° W visible
05 Oct 7.1 20:18:32 10° W 20:23:21 89° SSW 20:25:23 35° E visible
05 Oct 9.1 22:00:52 10° W 22:03:03 25° W 22:03:03 25° W visible
06 Oct 7.2 20:44:53 10° W 20:49:40 71° SSW 20:50:27 58° SE visible
06 Oct 9.9 22:27:29 10° W 22:28:07 13° W 22:28:07 13° W visible
